Regional Weather Roundup
Issued by NWS

Home | Current Version | Previous Version | Graphics & Text | Print | Product List | Glossary On
Versions: 1 2 3 4 5 6 7 8 9 10 11 12 13 14 15 16 17 18 19 20 21 22 23 24 25 26 27 28 29 30 31 32 33 34 35 36 37 38 39 40 41 42 43 44 45 46 47 48 49 50
000
ASUS43 KBIS 230402
RWRND

NORTH DAKOTA REGIONAL WEATHER ROUNDUP
NATIONAL WEATHER SERVICE BISMARCK ND
1100 PM CDT SUN APR 22 2018

NOTE: "FAIR" INDICATES FEW OR NO CLOUDS BELOW 12,000 FEET WITH NO
SIGNIFICANT WEATHER AND/OR OBSTRUCTIONS TO VISIBILITY.


NDZ001>003-009>011-017-230500-
NORTHWEST NORTH DAKOTA

CITY           SKY/WX    TMP DP  RH WIND       PRES   REMARKS
WILLISTON      CLEAR     52  26  36 NW13      30.12R
MINOT          CLEAR     52  32  46 S9        30.09S
$$

NDZ018>021-031>035-040>046-230500-
SOUTHWEST NORTH DAKOTA

CITY           SKY/WX    TMP DP  RH WIND       PRES   REMARKS
BISMARCK       CLOUDY    53  39  59 E5        30.12S
DICKINSON      CLEAR     48  26  42 E7        30.10R
GARRISON         N/A     44  35  70 CALM      30.11S
HETTINGER ARPT MOCLDY    51  31  46 NE7       30.12R
$$

NDZ004>008-012>016-024-026-027-054-230500-
NORTHEAST NORTH DAKOTA

CITY           SKY/WX    TMP DP  RH WIND       PRES   REMARKS
GRAND FORKS    CLOUDY    52  45  77 S9        30.11R
DEVILS LAKE    CLOUDY    46  37  71 CALM      30.11S
$$

NDZ022-023-025-028>030-036>039-047>053-230500-
SOUTHEAST NORTH DAKOTA

CITY           SKY/WX    TMP DP  RH WIND       PRES   REMARKS
FARGO          FAIR      51  37  58 S17       30.17R
JAMESTOWN      CLOUDY    50  38  63 S13       30.13R
$$





USA.gov is the U.S. government's official web portal to all federal, state and local government web resources and services.